Hourly Data Report for July 01, 2022

CARIBOU POINT (AUT)
NOVA SCOTIA
Current Station Operator: ECCC - MSC

45°46'00.000" N
62°41'00.000" W
2.40 m
8200774
71415
WBK

Download Data

Hourly Data (July 2022)
Hourly Data Report for July 1, 2022
TIME
LST
Temp Definition
°C
Dew Point Definition
°C
Rel Hum Definition
%
Precip. Amount Definition
mm

Wind Dir Definition
10's deg

Wind Spd Definition
km/h
Visibility Definition
km
Stn Press Definition
kPa
Hmdx Definition


Wind Chill Definition


Weather Definition


00:00 16.6 15.3 92 0.0 32 11   101.53     LegendNANA
01:00 16.4 15.3 93 0.0 32 12   101.52     LegendNANA
02:00 16.2 15.5 96 0.0 29 12   101.53     LegendNANA
03:00 16.8 16.3 97 0.0 29 13   101.55     LegendNANA
04:00 16.6 15.7 94 0.0 28 16   101.55     LegendNANA
05:00 16.3 14.9 92 0.0 27 8   101.61     LegendNANA
06:00 16.3 14.8 91 0.0 26 9   101.64     LegendNANA
07:00 17.1 15.2 88 0.0 27 13   101.67     LegendNANA
08:00 18.0 15.4 85 0.0 29 18   101.71     LegendNANA
09:00 18.2 15.5 84 0.0 30 8   101.64     LegendNANA
10:00 18.9 15.5 81 0.0 33 7   101.64     LegendNANA
11:00 20.1 16.6 80 0.0 5 5   101.58 25   LegendNANA
12:00 19.7 16.3 81 0.0 10 10   101.53     LegendNANA
13:00 20.7 16.1 75 0.0 10 9   101.45 25   LegendNANA
14:00 19.5 16.4 83 0.0 14 9   101.46     LegendNANA
15:00 20.7 16.5 77 0.0 14 11   101.42 26   LegendNANA
16:00 21.0 16.7 76 0.0 13 14   101.37 26   LegendNANA
17:00 25.2 13.6 49 0.0 26 12   101.34 28   LegendNANA
18:00 24.4 14.6 54 0.0 22 8   101.25 28   LegendNANA
19:00 23.3 14.9 59 0.0 22 7   101.22 27   LegendNANA
20:00 20.4 15.8 74 0.0 17 9   101.18 25   LegendNANA
21:00 20.4 15.3 73 0.0 20 11   101.19 25   LegendNANA
22:00 20.0 14.6 71 0.0 20 12   101.19     LegendNANA
23:00 19.7 13.8 69 0.0 21 11   101.17     LegendNANA

Notes on Data Quality.

Legend

  • E = Estimated
  • M = Missing
  • NA = Not Available*
  • [empty] = Indicates an unobserved value
Date modified: